Weather in Burevestnik

Russia / Sakhalin District     44°55′20″N   147°37′36″E
temp.,
°C
wind,
m/s
gust,
m/s
humid.,
%
clouds,
%
prec.,
mm/h
press.,
hPa
HPBL,
m
15 may, sat
sat1523:00+5ese119439 0.1 101417
02:00+5wnw019233 0.0 101512
05:00+4se119621 0.0 101610
08:00+6ese228719 0.0 1018131
11:00+8sse228032 0.1 1019280
14:00+9sse337734 0.0 1019361
17:00+7sse4484100 0.0 1020269
20:00+5se4595100 0.0 1021137
16 may, sun
sun1623:00+4sse4697100 0.0 1021148
02:00+3sse5897100 0.1 1020192
05:00+3sse61196100 0.1 1018284
08:00+4se61395100 0.0 1018340
11:00+5sse71493100 0.0 1016401
14:00+6sse81690100 0.0 1014481
17:00+5se61497100 1.3 1012385
20:00+5s61398100 7.3 1011334
17 may, mon
mon1723:00+5sse61498100 12.8 1010313
02:00+5sse51399100 3.9 1007321
05:00+5sse41199100 13.4 1005342
08:00+6se3599100 8.8 1004154
11:00+6ese3499100 14.1 100294
14:00+7n129787 0.5 1002125
17:00+8nnw359467 0.5 1002192
20:00+7nnw459655 0.0 100485
18 may, tue
tue1823:00+5nnw459197 0.0 100550
02:00+4nnw459145 0.0 100668
05:00+4nnw4488100 0.0 100754
08:00+6e0183100 0.0 100841
11:00+6sse2286100 0.0 1010116
14:00+8ssw1180100 0.0 1009126
17:00+10w1173100 0.0 1009200
20:00+6sse228933 0.0 101042
19 may, wed
wed1923:00+5sse238646 0.0 101152
02:00+5sse2287100 0.0 101028
05:00+4sse2288100 0.0 101130
08:00+7sse3378100 0.0 101168
11:00+9sse3372100 0.0 1011187
14:00+9sse237555 0.0 1011198
17:00+9s227653 0.0 1010187
20:00+7s118582 0.0 101134